Dublin, Ireland

1:07 PM GMT on February 09, 2016 (GMT +0000)
Templeogue, Dublin | | Change Station
CLOSE
Current Station
Personal Weather Station
Location: Dublin, DUBLIN
Elevation: 174 ft
Nearby Weather Stations

Elev 174 ft 53.31 °N, 6.32 °W | Updated 5 minutes ago

Light Rain Showers
Light Showers Rain Snow
36.7 °F
Feels Like 37 °F
N
0.0
Wind Variable Wind from North
Gusts 0.0 mph

Today
High -- | Low -- °F
--% Chance of Precip.
Yesterday
High -- | Low -- °F
Precip. -- in
Pressure 29.00 in
Visibility 4.3 miles
Clouds Few 600 ft
Mostly Cloudy 1000 ft
Scattered Clouds 1800 ft
Windchill 37 °F
Dew Point 33 °F
Humidity 85%
Rainfall 0.05 in
Snow Depth Not available.
7:56 AM 5:23 PM
New Moon, 1% visible
METAR EIME 091300Z 23020KT 7000 -SHRASN FEW006 BKN010 SCT018CB 02/01 Q0982
Pressure 29.00 in
Visibility 4.3 miles
Clouds Few 600 ft
Mostly Cloudy 1000 ft
Scattered Clouds 1800 ft
Windchill 37 °F
Dew Point 33 °F
Humidity 85%
Rainfall 0.05 in
Snow Depth Not available.
7:56 AM 5:23 PM
New Moon, 1% visible
METAR EIME 091300Z 23020KT 7000 -SHRASN FEW006 BKN010 SCT018CB 02/01 Q0982

10-Day Weather Forecast

Almanac

Astronomy

Feb. 09, 2016 Rise Set
Actual Time
Civil Twilight
Nautical Twilight
Astronomical Twilight
Moon
Length of Visible Light
Length of Day
Tomorrow will be .
, % of the Moon is Illuminated

Today's Extremes

Country Highs Country Lows

Community

WunderPhotos

Upload Photos

1,891,589 photos uploaded!

WunderBlog® & News

Nearby

Air Quality

  Air Quality AQ Index Pollutant
Not available.

Snow Depth

Station Depth Elevation

Earthquake Activity

City Distance Mag. Time & Date
Minimum magnitude displayed is 2.5.

Coastal Water Temperatures

Place Temperature

Stations

Nearby Weather Stations

Station Location Temp. Windchill Dew Point Humidity Wind Precip. Elev Updated Type